Location: Newark
(42.8481°N, 0.4872°E)
Time: 16:57:59
(UTC+00:00)

Vanguard 3 - Pass Details

Date: 30 October 2020
Orbit: 508 x 3262 km, 33.3° (Epoch: 28 November)

Event Time Altitude Azimuth Distance (km) Brightness Sun altitude
Rises 08:51:21 0° 272° (W) 7,020 11.5 21.1°
Reaches altitude 10° 08:56:01 10° 268° (W) 6,133 11.3 21.7°
Maximum altitude 09:15:05 56° 199° (SSW) 3,462 11.0 24.0°
Drops below altitude 10° 09:30:04 10° 126° (SE) 4,931 12.6 25.6°
Sets 09:33:22 0° 122° (ESE) 5,624 12.5 26.0°
